Location: Unspecified
(52.4292°N, 19.3359°E)
Time: 05:38:39
(UTC+02:00)

Transit 2A Rocket - All Passes

Search period start: 21 May 2024 00:00
Search period end: 31 May 2024 00:00
Orbit: 585 x 909 km, 66.7° (Epoch: 20 May)

Date Brightness Start Highest point End Pass type
(mag) Time Alt. Az. Time Alt. Az. Time Alt. Az.
21 May - 04:35:15 10° S 04:39:40 37° ESE 04:44:30 10° NE daylight
21 May - 06:17:13 10° WSW 06:22:02 50° NW 06:27:23 10° NE daylight
21 May - 08:01:48 10° WNW 08:05:50 22° NNW 08:10:08 10° NNE daylight
21 May - 09:46:19 10° NW 09:50:19 20° N 09:54:29 10° NE daylight
21 May - 11:29:10 10° NNW 11:34:24 36° NNE 11:39:55 10° E daylight
21 May - 13:11:37 10° NW 13:17:26 74° SW 13:23:29 10° SSE daylight
21 May - 14:55:26 10° WNW 14:59:10 17° WSW 15:02:57 10° SW daylight
22 May - 03:52:12 10° SSE 03:55:58 23° ESE 04:00:01 10° ENE visible
22 May - 05:32:58 10° SW 05:37:52 73° NW 05:43:19 10° NE daylight
22 May - 07:17:01 10° W 07:21:19 26° NNW 07:25:57 10° NNE daylight
22 May - 09:01:52 10° NW 09:05:41 19° N 09:09:43 10° NE daylight
22 May - 10:45:08 10° NNW 10:50:00 28° NNE 10:55:07 10° E daylight
22 May - 12:27:34 10° NW 12:33:22 78° NE 12:39:27 10° SE daylight
22 May - 14:10:39 10° NW 14:15:29 27° WSW 14:20:27 10° SSW daylight
23 May - 03:09:56 10° SE 03:12:23 14° ESE 03:14:56 10° ENE visible
23 May - 04:48:58 10° SSW 04:53:50 74° SE 04:59:14 10° NE daylight
23 May - 06:32:18 10° W 06:36:52 32° NNW 06:41:51 10° NNE daylight
23 May - 08:17:15 10° NW 08:21:04 19° N 08:25:06 10° NE daylight
23 May - 10:01:02 10° NNW 10:05:31 24° NNE 10:10:14 10° ENE daylight
23 May - 11:43:32 10° NW 11:49:13 55° NE 11:55:09 10° ESE daylight
23 May - 13:26:14 10° NW 13:31:43 41° WSW 13:37:20 10° S daylight
24 May - 04:05:17 10° S 04:09:55 46° ESE 04:15:02 10° NE daylight
24 May - 05:47:44 10° WSW 05:52:31 43° NW 05:57:48 10° NE daylight
24 May - 07:32:30 10° WNW 07:36:28 21° NNW 07:40:41 10° NE daylight
24 May - 09:16:48 10° NW 09:20:57 21° NNE 09:25:18 10° ENE daylight
24 May - 10:59:32 10° NNW 11:04:57 41° NE 11:10:37 10° ESE daylight
24 May - 12:42:03 10° NW 12:47:48 62° WSW 12:53:46 10° SSE daylight
24 May - 14:26:28 10° WNW 14:29:21 14° WSW 14:32:16 10° SW daylight
25 May - 03:21:59 10° S 03:26:09 29° ESE 03:30:41 10° NE visible
25 May - 05:03:21 10° SW 05:08:17 61° NW 05:13:44 10° NE daylight
25 May - 06:47:42 10° WNW 06:51:55 24° NNW 06:56:25 10° NNE daylight
25 May - 08:32:25 10° NW 08:36:21 19° N 08:40:28 10° NE daylight
25 May - 10:15:30 10° NNW 10:20:35 32° NNE 10:25:54 10° E daylight
25 May - 11:57:56 10° NW 12:03:48 89° SW 12:09:53 10° SE daylight
25 May - 13:41:18 10° WNW 13:45:44 22° WSW 13:50:14 10° SSW daylight
26 May - 02:39:15 10° SSE 02:42:30 18° ESE 02:45:57 10° ENE visible
26 May - 04:19:14 10° SW 04:24:11 90° ENE 04:29:41 10° NE daylight
26 May - 06:02:55 10° W 06:07:25 29° NNW 06:12:16 10° NNE daylight
26 May - 07:47:52 10° NW 07:51:43 19° N 07:55:46 10° NE daylight
26 May - 09:31:25 10° NNW 09:36:07 26° NNE 09:41:03 10° E daylight
26 May - 11:13:53 10° NW 11:19:40 65° NE 11:25:43 10° SE daylight
26 May - 12:56:45 10° NW 13:01:59 34° WSW 13:07:22 10° S daylight
27 May - 01:58:18 10° ESE 01:58:59 10° E 01:59:40 10° E visible
27 May - 03:35:24 10° SSW 03:40:12 58° ESE 03:45:32 10° NE visible
27 May - 05:18:17 10° WSW 05:23:01 37° NW 05:28:12 10° NNE daylight
27 May - 07:03:10 10° NW 07:07:06 20° N 07:11:15 10° NE daylight
27 May - 08:47:15 10° NW 08:51:35 22° NNE 08:56:08 10° ENE daylight
27 May - 10:29:52 10° NW 10:35:27 47° NE 10:41:17 10° ESE daylight
27 May - 12:12:27 10° NW 12:18:08 51° WSW 12:23:59 10° SSE daylight
27 May - 13:58:09 10° W 13:59:28 11° W 14:00:50 10° WSW daylight
28 May - 02:51:53 10° S 02:56:22 36° ESE 03:01:15 10° NE visible
28 May - 04:33:48 10° WSW 04:38:43 52° NW 04:44:09 10° NE daylight
28 May - 06:18:22 10° WNW 06:22:30 22° NNW 06:26:55 10° NE daylight
28 May - 08:02:56 10° NW 08:06:59 20° N 08:11:14 10° NE daylight
28 May - 09:45:51 10° NNW 09:51:07 36° NNE 09:56:38 10° E daylight
28 May - 11:28:18 10° NW 11:34:10 76° SW 11:40:14 10° SSE daylight
28 May - 13:12:03 10° WNW 13:15:56 18° WSW 13:19:50 10° SSW daylight
29 May - 02:08:51 10° SSE 02:12:39 23° ESE 02:16:44 10° ENE visible
29 May - 03:49:33 10° SW 03:54:32 75° NW 04:00:05 10° NE daylight
29 May - 05:33:33 10° W 05:37:58 26° NNW 05:42:43 10° NNE daylight
29 May - 07:18:27 10° NW 07:22:21 19° N 07:26:27 10° NE daylight
29 May - 09:01:47 10° NNW 09:06:41 28° NNE 09:11:50 10° E daylight
29 May - 10:44:14 10° NW 10:50:05 76° NE 10:56:11 10° SE daylight
29 May - 12:27:18 10° NW 12:32:13 28° WSW 12:37:16 10° SSW daylight
30 May - 01:26:37 10° SE 01:29:04 14° ESE 01:31:37 10° ENE visible
30 May - 03:05:34 10° SSW 03:10:29 73° SE 03:15:58 10° NE visible
30 May - 04:48:51 10° W 04:53:31 33° NNW 04:58:36 10° NNE daylight
30 May - 06:33:48 10° NW 06:37:43 19° N 06:41:50 10° NE daylight
30 May - 08:17:38 10° NNW 08:22:11 24° NNE 08:26:55 10° ENE daylight
30 May - 10:00:11 10° NW 10:05:55 55° NE 10:11:52 10° ESE daylight
30 May - 11:42:54 10° NW 11:48:25 42° WSW 11:54:05 10° S daylight
